Terug naar catalogus

DELTA 1 DEB

ActiefPO
NORAD 37635·DEBRIS·🇺🇸 United States

Gelanceerd Mar 5, 1978 vanaf Vandenberg Space Force Base

Loading…

Volgende Passages (komende 24 uur)

TLE

VersSource: Space-Track

Epoch: Sep 13, 2026, 08:50 UTC

1 37635U 78026HW  26256.36837906  .00000790  00000-0  34129-3 0  9998
2 37635  99.1754 285.4035 0047415 177.8876 194.9479 14.26850632684382

Volg DELTA 1 DEB in realtime met AllMySat

Download on the App Store